Regional Weather Roundup
Issued by NWS

Home | Current Version | Previous Version | Text Only | Print | Product List | Glossary Off
Versions: 1 2 3 4 5 6 7 8 9 10 11 12 13 14 15 16 17 18 19 20 21 22 23 24 25 26 27 28 29 30 31 32 33 34 35 36 37 38 39 40 41 42 43 44 45 46 47 48 49 50

000
ASUS45 KCYS 312310
RWRWY

WYOMING REGIONAL WEATHER ROUNDUP
NATIONAL WEATHER SERVICE CHEYENNE WY
500 PM MDT THU JUL 31 2014

NOTE:  "FAIR" INDICATES FEW OR NO CLOUDS BELOW 12,000 FEET
WITH NO SIGNIFICANT WEATHER AND/OR OBSTRUCTIONS TO VISIBILITY.

WYZ001-010000-
YELLOWSTONE NATIONAL PARK

CITY           SKY/WX    TMP DP  RH WIND       PRES   REMARKS
LK YELLOWSTONE   N/A     65  42  43 CALM      30.42F
W YELLOWSTONE  NOT AVBL

$$
WYZ002>013-054>058-071-098>099-010000-
NORTHERN WYOMING

CITY           SKY/WX    TMP DP  RH WIND       PRES   REMARKS
JACKSON        PTSUNNY   75  39  27 E15       30.30S
CODY           PTSUNNY   84  39  20 E10       30.17F
GREYBULL       MOSUNNY   90  32  12 SE7       30.08F
WORLAND        MOSUNNY   88  36  15 S9        30.10F
SHERIDAN       MOSUNNY   90  41  18 S10       30.10F
BUFFALO        PTSUNNY   78  39  24 SW14G23   30.21F
GILLETTE       SUNNY     86  37  17 VRB6      30.15F
HULETT         FAIR      86  36  16 MISG      30.16
NEWCASTLE      FAIR      82  32  16 SW7       30.16

$$
WYZ014>020-022>026-101>103-010000-
CENTRAL WYOMING

CITY           SKY/WX    TMP DP  RH WIND       PRES   REMARKS
BIG PINEY      PTSUNNY   73  35  25 W6        30.33F
PINEDALE       MOCLDY    73  34  23 S7        30.33F
DUBOIS         MOCLDY    70  34  26 N8        30.37S
LANDER         MOSUNNY   82  23  11 NW5       30.20F
RIVERTON       SUNNY     83  18   9 VRB5      30.22F
CASPER         SUNNY     83  24  11 CALM      30.20F
DOUGLAS        SUNNY     83  35  18 SE12      30.21F

$$
WYZ021-027>030-104>119-010000-
SOUTHERN WYOMING

CITY           SKY/WX    TMP DP  RH WIND       PRES   REMARKS
EVANSTON       MOSUNNY   74  39  28 E6        30.32F
KEMMERER       CLEAR     73  34  23 E7        30.35F
FORT BRIDGER   FAIR      75  39  27 E7        30.35F
ROCK SPRINGS   MOSUNNY   79  35  20 N10       30.28
DIXON          FAIR      81  40  22 SW5       30.25F
RAWLINS        MOSUNNY   79  31  17 E9G20     30.29F
SARATOGA       FAIR      73  37  27 CALM      30.30F
LARAMIE        MOSUNNY   69  40  34 SE6       30.33F
CHEYENNE       MOSUNNY   76  43  30 E5        30.28F
TORRINGTON     SUNNY     85  43  22 S10       30.15F
PINE BLUFFS    FAIR      79  43  27 CALM      30.23F

$$


USA.gov is the U.S. government's official web portal to all federal, state and local government web resources and services.